Location: Beadle
(51.4667°N, 109.0000°W)
Time: 16:51:55
(UTC+00:00)

DIWATA 2B (PO-101) - Pass Details

Date: 04 July 2022
Orbit: 583 x 599 km, 98.0° (Epoch: 19 August)

Event Time Altitude Azimuth Distance (km) Brightness Sun altitude
Exits shadow 10:06:50 - 217° (SW) 2,009 ? -7.2°
Reaches altitude 10° 10:07:04 10° 219° (SW) 1,939 ? -7.2°
Maximum altitude 10:10:15 21° 268° (W) 1,379 ? -6.9°
Drops below altitude 10° 10:13:28 10° 318° (NW) 1,952 ? -6.6°
Sets 10:16:07 0° 335° (NNW) 2,859 ? -6.3°
